CAPE
1064 1164 1138 982 67 77 73 52 69 90 129 133 135 110 287 132 340 293 670 1117 1590 2054 2463 2956 3243 3491 3377 3473 3297 2972 2831 2465 2498 2753 2614 2529 2817 2653 2023 2075 1979 1794 1720 1523 1449 1392 1389 1748 1202
1892 757 307 35 53 53 53 46 56 108 157 170 242 255 433 636 1060 1025 1118 1432 1529 1984 2321 2478 3218 3492 3668 3665 3513 3179 2824 2494 2479 2338 2353 2451 2436 2246 2232 1915 1707 1427 1335 1376 1384 1440 1369 1614 1492
1885 199 61 86 81 88 96 57 9 93 11 25 132 270 312 631 1166 1068 1340 1385 1640 1829 2119 2456 3447 3547 3801 3875 3747 3419 3078 2975 2688 2343 2185 1966 1964 2248 2129 2064 1872 1694 1324 1126 1171 1341 1421 1453 1539
1067 6 6 26 62 89 80 71 55 62 94 0 0 78 407 738 1084 1351 1699 1672 1728 1801 1978 3152 3549 3613 3815 3959 3815 3576 3265 3159 3074 2468 2049 1898 1841 2121 2243 2006 1491 1841 1383 1413 1308 1242 1288 1487 1680
1021 0 15 12 28 44 232 145 53 134 77 115 8 362 586 1092 1548 1640 1705 1759 1664 1834 2433 2898 3430 3759 4020 3978 3827 3639 3322 3102 3038 2340 2108 2037 2015 2080 1893 1325 1746 1710 1700 1515 1510 1346 1513 1569 1577
100 87 48 19 12 4 66 39 107 130 114 54 48 674 806 1221 1786 1854 1446 1915 1810 1842 2437 2672 3464 3669 3811 3955 3903 3691 3287 2948 2818 2537 2421 2312 2325 2135 1799 1996 1781 1927 1621 1792 1573 1287 1485 1590 1782
217 88 109 55 43 52 22 37 147 106 162 21 84 735 856 1015 1442 1837 2068 2014 1824 2065 2346 2602 2723 2812 3408 3860 3866 3749 3495 3216 3230 3021 2963 2733 2569 2232 2101 2285 1953 1835 1631 1924 1785 1518 1683 1407 1598
6 56 153 156 121 26 114 250 242 124 136 137 103 735 948 1090 1894 1976 1989 1973 1927 2162 2565 2804 2701 2458 2980 3132 3931 3915 3799 3403 2886 2873 2909 2845 2624 2102 2486 2637 2407 1871 1877 1758 1806 1739 1802 2051 1475
4 22 73 261 181 134 193 289 253 284 269 231 125 370 1038 1584 2278 2249 2118 1967 1965 2116 2239 2499 2643 2736 2817 3190 3104 3995 3433 3085 3007 3017 3028 2895 2117 1627 2079 2441 2258 1906 1799 1649 1640 1627 2279 2067 1718
16 25 56 129 101 95 122 282 26 49 217 482 700 948 1512 1934 2245 2549 2418 2164 2071 1965 2131 2395 2681 2650 2536 2855 2997 3389 2995 3052 2961 2769 2634 2226 1726 1807 2049 2031 2244 2216 2064 1868 1723 2017 1987 1838 1314
1 23 2 0 59 95 111 58 57 14 109 765 389 1373 1521 1929 2054 2302 2440 2432 2348 2211 2212 2277 2296 2289 2376 2615 2566 2782 2588 2772 2642 2520 2234 2072 1951 1895 1955 1667 1731 1766 1731 1513 1931 1937 1775 1375 1045
0 0 0 0 29 83 129 50 51 59 142 526 1369 1701 1701 1707 2012 2155 2311 2438 2552 2475 2496 2334 2307 2285 2250 2233 2216 2104 2021 2032 1966 1800 1791 1868 1424 1456 1544 1456 1456 1344 1385 1414 1442 1457 1343 1203 947
0 0 0 0 6 18 0 61 159 165 441 988 1796 1758 1959 1842 1683 1683 2217 2372 2338 2426 2717 2419 2381 2404 2253 2237 1945 1786 1646 1676 1615 1607 1507 1532 1206 1045 619 1207 1234 1246 1238 1303 1177 1117 1232 983 802
0 0 0 0 0 0 18 167 278 547 577 1634 1835 1593 1608 1811 1989 1730 1975 1735 2271 1975 2257 2234 2309 2049 1942 2052 1607 1511 1448 1424 1313 1296 1156 770 435 522 262 182 762 1119 1194 1198 1174 1167 917 918 763
0 0 0 0 0 0 4 48 10 483 889 1537 1554 1307 1035 761 1351 1946 1892 1687 1934 1946 2071 2243 2157 2121 1888 1572 1317 1159 1056 1112 1206 1192 992 717 574 386 173 635 677 934 1004 977 1059 1081 801 670 640
0 0 0 13 0 0 0 31 133 638 1101 1542 1224 895 821 385 755 1545 1864 1754 1853 1921 2246 2245 2136 2032 1842 1479 1234 872 725 626 895 1068 797 135 357 251 406 699 848 714 483 900 856 826 760 723 714
0 0 1 9 0 0 2 14 142 504 1274 1316 613 125 21 0 256 851 1524 1723 1850 1985 2098 1914 2056 1858 1864 2040 1837 1613 1393 1265 1159 981 579 379 429 700 592 753 652 550 416 888 764 700 581 646 634
0 1 5 21 29 7 29 4 2 235 519 563 453 133 96 262 498 612 698 1361 1269 1603 1672 1765 1847 1934 2045 1973 2006 1684 1363 1028 1071 959 761 575 605 740 591 548 609 518 468 691 465 541 474 501 513
0 0 0 31 25 10 18 0 21 139 313 539 449 235 165 235 366 468 643 324 1244 1651 1640 1620 1863 1890 2127 1945 1555 1374 1163 882 725 656 568 494 771 677 577 443 454 579 604 419 576 534 391 441 463
0 0 0 27 1 25 17 54 55 490 409 357 398 149 70 92 360 428 6 0 619 1646 1740 1940 2062 1950 1958 1861 1726 1413 1017 685 567 595 424 434 278 300 359 356 291 394 593 544 439 477 385 256 341
0 0 0 0 0 38 12 5 22 31 366 392 367 124 94 323 320 673 158 8 647 1516 1103 1904 1816 1757 1638 1407 1229 937 721 653 492 331 149 129 200 145 139 306 220 225 351 458 371 453 419 298 376
0 0 0 0 0 0 0 0 0 0 158 137 36 82 168 546 538 279 385 155 92 932 1120 1701 1798 1723 1429 1066 802 500 329 354 130 72 33 55 49 117 111 153 219 162 278 367 341 434 368 240 258
0 0 0 0 0 0 0 0 0 12 3 19 0 39 437 639 111 517 390 349 379 874 1352 1737 1591 1388 1109 793 343 220 122 91 98 57 122 121 155 53 70 116 169 210 151 346 268 307 319 232 224
0 0 0 0 0 0 0 0 0 112 52 23 102 92 828 1126 568 579 769 745 938 1309 1599 1552 1356 994 873 468 76 70 9 0 9 14 41 149 194 106 78 118 154 120 145 280 371 283 281 288 262
0 0 0 0 0 0 0 0 34 1 20 83 165 332 467 1412 1163 1244 1117 1223 1413 1727 1461 1185 951 568 410 125 68 36 0 3 41 85 112 94 145 174 179 275 285 161 276 293 365 299 290 282 254
0 0 0 0 0 0 0 0 1 0 9 141 11 1024 2024 1970 1837 1836 1943 1992 1787 1489 1331 985 641 488 441 143 112 1 0 39 79 99 108 115 5 130 154 230 280 302 330 466 446 363 316 337 262
0 0 0 0 0 0 0 16 81 103 245 363 1876 2170 2064 1940 1417 1687 1623 1575 1570 1390 997 619 473 470 385 223 93 0 0 1 42 59 51 70 116 100 170 204 209 210 351 559 502 445 304 224 153
0 0 0 0 0 0 0 79 3 297 59 446 0 657 760 405 1085 1632 1230 995 1242 984 693 474 373 260 202 292 23 0 0 24 2 34 71 68 72 200 359 358 332 326 388 423 407 348 223 168 120
0 0 0 0 0 0 0 0 59 152 93 201 817 950 1056 1059 724 1048 1239 1085 839 685 652 588 408 284 290 338 40 0 34 3 48 46 55 69 74 71 208 213 162 190 248 275 173 169 138 119 98
0 0 0 0 0 0 0 36 168 53 269 331 406 1154 608 884 485 589 888 834 784 717 651 599 493 517 256 359 70 0 40 39 87 44 58 38 45 86 79 71 62 77 88 101 107 65 71 76 66
CIN
-252 -312 -342 -356 -92 -103 -73 -115 -69 -89 -96 -86 -119 -140 -79 -60 -36 -39 -95 -157 -110 -48 -0 -0 -0 -0 -0 -0 -0 -0 -0 -6 -4 -0 -0 -0 -0 -0 -0 -0 -0 -0 -0 -0 -0 -1 -11 -0 -1
-165 -383 -487 -15 -135 -77 -18 -16 -54 -106 -92 -83 -99 -105 -95 -68 -82 -118 -89 -85 -143 -85 -26 -14 -0 -0 -0 -0 -0 -0 -0 -7 -7 -7 -6 -4 -0 -0 -0 -0 -1 -0 -0 -0 -0 -0 -9 -2 -3
-163 -278 -566 -324 -144 -128 -58 -29 -6 -94 -19 -104 -149 -75 -68 -32 -63 -77 -100 -110 -107 -80 -55 -43 -0 -0 -0 -0 -0 -0 -0 -0 -2 -6 -1 -7 -20 -5 -0 -0 -0 -0 -0 -4 -0 -0 -0 -6 -5
-205 -9 -102 -23 -142 -30 -128 -3 -160 -243 -179 -0 -0 -149 -65 -32 -45 -97 -115 -120 -109 -85 -64 -1 -0 -0 -0 -0 -0 -0 -0 -0 -0 -1 -8 -7 -4 -1 -0 -0 -0 -0 -2 -0 -0 -0 -0 -4 -5
-243 -9 -91 -38 -180 -104 -131 -216 -301 -258 -262 -218 -248 -124 -86 -60 -73 -121 -100 -104 -144 -74 -29 -3 -0 -0 -0 -0 -0 -0 -0 -0 -0 -6 -5 -2 -0 -0 -0 -7 -0 -0 -1 -0 -0 -0 -0 -0 -6
-152 -215 -121 -252 -210 -99 -201 -191 -46 -252 -312 -295 -208 -144 -85 -16 -59 -80 -46 -109 -138 -117 -35 -16 -0 -1 -0 -0 -0 -0 -0 -1 -0 -2 -0 -0 -0 -0 -0 -0 -0 -0 -0 -0 -0 -0 -0 -0 -8
-129 -211 -309 -373 -288 -127 -166 -69 -218 -121 -282 -335 -208 -134 -115 -47 -53 -61 -94 -119 -144 -105 -67 -32 -39 -40 -6 -0 -0 -0 -0 -0 -0 -0 -0 -0 -0 -0 -0 -0 -1 -0 -0 -0 -0 -0 -0 -0 -10
-24 -342 -337 -342 -258 -141 -125 -82 -45 -110 -333 -323 -347 -128 -135 -100 -91 -89 -92 -84 -121 -98 -67 -38 -40 -68 -33 -14 -0 -0 -0 -0 -0 -0 -0 -0 -0 -0 -0 -0 -0 -2 -0 -1 -0 -0 -0 -0 -7
-44 -157 -230 -267 -234 -82 -126 -141 -173 -144 -273 -275 -341 -268 -113 -145 -78 -77 -70 -64 -65 -57 -57 -52 -39 -38 -35 -3 -3 -0 -0 -0 -0 -1 -0 -0 -2 -10 -2 -3 -2 -1 -1 -0 -0 -4 -0 -0 -1
-34 -27 -178 -225 -88 -80 -65 -125 -74 -181 -251 -114 -296 -204 -131 -103 -76 -61 -57 -52 -16 -62 -56 -56 -29 -28 -36 -19 -2 -1 -1 -2 -2 -2 -1 -5 -33 -32 -11 -17 -2 -2 -1 -0 -2 -0 -1 -0 -9
-15 -41 -28 -21 -37 -12 -20 -99 -34 -14 -36 -158 -363 -155 -122 -89 -83 -51 -37 -41 -59 -32 -70 -59 -50 -54 -55 -33 -18 -9 -3 -2 -2 -1 -1 -8 -6 -21 -12 -18 -13 -12 -10 -2 -4 -2 -2 -15 -22
-0 -0 -0 -0 -106 -108 -91 -80 -20 -37 -35 -142 -173 -212 -169 -156 -72 -59 -27 -28 -24 -50 -68 -58 -48 -49 -46 -44 -52 -65 -40 -34 -26 -45 -21 -11 -26 -28 -23 -34 -23 -34 -26 -14 -7 -16 -21 -10 -26
-0 -0 -0 -0 -63 -20 -0 -75 -17 -48 -31 -159 -166 -160 -174 -154 -104 -92 -49 -26 -33 -51 -42 -39 -37 -27 -30 -33 -65 -67 -59 -38 -36 -37 -34 -32 -47 -38 -75 -42 -38 -42 -38 -30 -15 -22 -26 -28 -35
-0 -0 -0 -0 -0 -0 -16 -47 -47 -36 -46 -138 -99 -77 -68 -76 -101 -121 -69 -69 -51 -61 -80 -56 -42 -28 -18 -28 -58 -62 -54 -56 -52 -51 -67 -71 -87 -88 -29 -171 -64 -33 -27 -30 -29 -20 -31 -29 -31
-0 -0 -0 -0 -0 -0 -40 -18 -40 -77 -54 -106 -87 -114 -86 -96 -36 -103 -89 -118 -85 -86 -78 -84 -56 -26 -60 -50 -63 -73 -86 -72 -58 -50 -62 -75 -57 -51 -52 -88 -59 -39 -16 -35 -25 -16 -22 -27 -71
-0 -0 -0 -110 -0 -0 -7 -45 -162 -65 -210 -149 -172 -154 -121 -35 -81 -58 -85 -106 -92 -104 -74 -64 -57 -54 -44 -57 -49 -42 -36 -45 -96 -46 -33 -162 -85 -53 -96 -47 -30 -42 -25 -38 -35 -33 -38 -36 -37
-0 -0 -39 -110 -2 -0 -52 -56 -56 -147 -118 -119 -96 -53 -332 -0 -49 -38 -75 -92 -81 -111 -72 -86 -76 -41 -42 -29 -32 -22 -21 -32 -34 -27 -28 -26 -129 -31 -46 -37 -38 -46 -82 -28 -38 -40 -42 -36 -37
-0 -34 -157 -277 -215 -113 -94 -21 -12 -296 -263 -177 -97 -35 -604 -435 -117 -61 -46 -86 -130 -113 -90 -64 -66 -47 -38 -27 -18 -17 -14 -22 -29 -16 -23 -15 -104 -65 -27 -59 -29 -35 -44 -34 -45 -51 -57 -41 -44
-0 -0 -0 -271 -192 -293 -86 -0 -18 -405 -271 -174 -80 -227 -334 -100 -124 -52 -51 -35 -76 -140 -110 -92 -72 -56 -32 -33 -32 -20 -24 -33 -28 -21 -27 -39 -63 -67 -24 -27 -39 -17 -16 -37 -37 -39 -31 -33 -35
-0 -0 -0 -158 -150 -222 -104 -38 -358 -496 -613 -203 -161 -145 -442 -481 -286 -144 -83 -0 -182 -56 -120 -83 -43 -29 -24 -11 -10 -7 -13 -21 -53 -44 -42 -53 -37 -26 -22 -25 -30 -24 -9 -12 -48 -41 -32 -45 -58
-0 -0 -0 -0 -0 -191 -122 -33 -204 -213 -404 -424 -288 -158 -115 -437 -331 -310 -79 -21 -211 -53 -48 -47 -34 -27 -14 -9 -8 -7 -7 -28 -36 -28 -37 -32 -72 -50 -75 -37 -40 -35 -20 -6 -12 -24 -14 -39 -51
-0 -0 -0 -0 -0 -0 -0 -0 -0 -0 -462 -494 -218 -242 -157 -516 -443 -361 -87 -39 -46 -77 -67 -32 -27 -11 -8 -8 -20 -38 -37 -18 -41 -63 -87 -75 -66 -46 -51 -54 -25 -42 -24 -5 -18 -30 -21 -28 -35
-0 -0 -0 -0 -0 -0 -0 -0 -0 -184 -16 -431 -26 -59 -243 -438 -46 -455 -41 -44 -39 -68 -79 -35 -30 -14 -23 -55 -104 -84 -84 -45 -30 -36 -39 -43 -45 -42 -62 -44 -27 -19 -36 -8 -9 -41 -34 -31 -33
-0 -0 -0 -0 -0 -0 -0 -0 -0 -113 -95 -31 -60 -71 -305 -331 -71 -86 -51 -70 -57 -46 -34 -55 -28 -62 -77 -95 -178 -172 -121 -0 -67 -55 -60 -29 -44 -35 -46 -54 -31 -14 -20 -16 -10 -25 -47 -36 -26
-0 -0 -0 -0 -0 -0 -0 -0 -53 -44 -249 -187 -63 -71 -203 -103 -90 -60 -71 -70 -68 -57 -56 -60 -94 -138 -119 -132 -178 -186 -0 -118 -35 -45 -51 -35 -27 -31 -36 -34 -26 -24 -14 -15 -12 -17 -26 -34 -27
-0 -0 -0 -0 -0 -0 -0 -0 -14 -0 -96 -115 -78 -92 -194 -110 -80 -85 -75 -90 -104 -107 -87 -100 -135 -132 -78 -137 -180 -11 -0 -78 -61 -73 -37 -7 -4 -18 -36 -31 -21 -7 -10 -6 -8 -12 -19 -31 -31
-0 -0 -0 -0 -0 -0 -0 -192 -147 -125 -124 -160 -135 -149 -91 -58 -75 -39 -62 -113 -107 -102 -127 -145 -141 -122 -116 -153 -207 -0 -0 -18 -99 -83 -63 -21 -14 -20 -18 -17 -16 -18 -4 -3 -6 -14 -36 -35 -21
-0 -0 -0 -0 -0 -0 -0 -74 -23 -68 -37 -340 -0 -43 -35 -44 -40 -66 -81 -62 -118 -124 -78 -138 -126 -139 -147 -146 -159 -0 -0 -171 -41 -79 -62 -58 -46 -24 -16 -2 -3 -6 -8 -7 -7 -18 -27 -23 -23
-0 -0 -0 -0 -0 -0 -0 -0 -80 -53 -53 -223 -94 -59 -134 -193 -177 -27 -73 -54 -117 -140 -131 -132 -123 -135 -147 -130 -123 -0 -209 -21 -137 -94 -51 -42 -31 -29 -25 -21 -12 -15 -13 -13 -16 -22 -35 -16 -39
-0 -0 -0 -0 -0 -0 -0 -32 -118 -49 -49 -46 -67 -149 -338 -315 -420 -119 -45 -56 -98 -102 -105 -98 -131 -116 -175 -126 -155 -0 -144 -139 -178 -134 -90 -84 -54 -21 -28 -61 -14 -16 -29 -27 -21 -27 -34 -22 -24
Wind_Speed
20 12 10 6 nan nan nan nan nan nan 2 7 12 14 18 18 10 11 17 25 28 21 15 15 16 16 13 16 16 17 18 21 21 23 22 23 23 24 20 18 20 16 15 15 13 14 17 14 10
14 9 5 nan nan nan nan nan nan 16 18 16 13 15 15 12 13 19 16 21 26 21 15 14 16 15 14 16 18 19 21 24 24 24 24 27 26 24 23 16 16 15 14 14 13 14 17 15 11
13 12 nan nan nan nan nan nan nan nan nan nan 22 13 11 13 17 15 16 20 20 18 17 18 20 18 16 17 18 18 19 21 22 21 21 20 23 22 16 14 13 14 12 14 12 14 15 13 12
17 nan nan nan nan nan nan nan nan nan nan nan nan nan 12 20 16 18 25 22 17 17 15 20 21 18 17 18 17 16 18 18 19 20 18 18 18 19 16 12 9 11 13 12 12 12 14 11 13
9 nan nan nan nan nan 12 26 nan 34 nan 20 nan 20 18 14 27 30 27 23 23 18 15 14 18 18 18 18 17 16 15 17 18 18 17 15 17 18 16 11 8 7 12 12 8 10 13 10 10
14 nan nan nan nan nan nan nan 36 37 27 nan nan 17 19 13 27 26 23 25 22 22 18 14 17 19 17 18 18 18 17 16 16 17 17 15 14 17 18 14 9 8 10 13 9 8 12 9 9
2 nan 11 nan nan nan nan nan 28 33 33 nan nan 23 15 15 26 25 23 23 18 18 16 13 13 18 20 20 19 18 19 19 16 15 15 16 12 13 15 15 13 11 10 11 10 8 9 10 10
nan nan 14 13 11 nan 18 21 33 28 26 17 29 24 19 18 26 21 20 19 16 15 13 12 11 15 14 16 20 19 19 19 20 18 15 13 9 8 12 17 16 12 10 10 8 9 7 10 10
nan nan nan 23 16 16 28 28 31 17 29 21 29 24 25 27 26 22 17 16 10 9 12 12 12 15 16 17 16 19 18 18 18 17 15 9 8 8 6 11 13 13 12 9 8 8 9 9 9
nan nan nan 21 15 nan 16 29 nan nan 25 16 25 17 29 32 25 21 18 16 14 13 11 11 13 13 13 16 16 16 13 15 13 13 10 6 8 10 8 8 11 12 11 9 8 10 9 9 14
nan nan nan nan nan nan 11 nan nan nan 21 26 36 40 30 30 22 22 19 18 20 19 15 15 15 11 13 14 13 13 14 16 15 14 12 14 9 15 11 10 16 23 19 15 13 14 17 16 15
nan nan nan nan nan nan 7 nan nan nan 27 35 35 45 29 27 23 21 19 17 19 22 23 20 14 13 11 13 13 13 13 14 16 15 14 15 15 18 22 16 18 19 28 19 15 16 16 16 17
nan nan nan nan nan nan nan nan 14 19 25 36 44 40 33 23 20 18 18 14 14 16 20 21 18 16 15 13 11 14 13 10 14 15 16 17 18 17 17 15 15 16 24 23 21 18 16 19 18
nan nan nan nan nan nan nan 15 21 16 30 44 45 22 19 8 22 17 16 16 15 15 18 19 19 14 13 10 11 12 13 14 17 16 17 15 24 21 19 18 15 17 19 27 28 25 18 19 22
nan nan nan nan nan nan nan nan nan 26 38 45 40 45 26 26 26 16 19 18 19 16 16 19 19 17 14 11 9 6 7 11 16 18 19 20 18 22 22 21 20 19 23 18 23 33 25 26 21
nan nan nan nan nan nan nan nan 20 27 37 42 43 39 38 31 27 14 17 19 19 19 21 18 19 21 20 17 12 10 9 10 11 14 16 20 20 21 21 21 18 22 24 21 21 30 33 27 25
nan nan nan nan nan nan nan nan 34 35 38 37 41 49 nan nan 26 19 15 20 21 20 18 18 19 23 24 19 14 14 12 11 13 16 19 20 22 22 25 23 20 20 19 17 18 25 34 30 28
nan nan nan nan nan nan nan nan nan 48 43 40 43 47 nan 56 24 16 22 9 15 18 18 17 19 27 24 18 15 16 17 15 15 16 21 24 27 27 29 28 24 22 20 18 17 19 34 35 35
nan nan nan nan nan nan nan nan nan 28 42 43 39 41 53 56 40 38 34 33 18 14 18 17 20 27 20 17 21 22 20 23 23 26 21 29 29 28 26 28 29 26 20 18 18 21 21 31 41
nan nan nan nan nan nan nan nan nan 26 31 39 40 35 nan nan 54 47 nan nan 10 8 21 17 18 19 14 14 20 23 25 23 27 24 15 16 17 21 26 26 27 26 26 20 20 20 17 26 38
nan nan nan nan nan nan nan nan nan nan 22 32 28 28 nan 40 55 38 34 nan 19 11 8 18 17 16 18 18 24 22 22 29 26 15 11 13 15 16 22 23 26 23 24 21 21 20 19 24 34
nan nan nan nan nan nan nan nan nan nan 29 23 nan nan 32 35 39 36 30 25 nan 23 20 16 20 22 23 24 21 22 27 28 14 nan nan nan nan 14 15 16 25 26 27 26 23 20 20 24 33
nan nan nan nan nan nan nan nan nan nan nan nan nan nan 23 29 21 20 25 26 24 18 10 18 21 23 25 21 23 24 28 nan nan nan 9 7 5 nan nan 15 18 21 24 24 23 21 19 21 31
nan nan nan nan nan nan nan nan nan 14 nan nan 28 nan 25 32 21 17 17 14 11 8 15 21 23 24 24 21 nan nan nan nan nan nan nan 9 5 4 nan 7 11 15 17 21 25 22 18 18 22
nan nan nan nan nan nan nan nan nan nan nan nan 22 26 30 36 28 19 19 19 19 19 24 24 26 27 22 19 nan nan nan nan nan nan 6 nan 5 2 2 7 13 16 21 21 25 24 19 18 21
nan nan nan nan nan nan nan nan nan nan nan 14 nan 24 31 27 24 23 26 19 21 22 22 25 26 25 18 14 17 nan nan nan nan nan 7 4 nan 2 3 5 9 13 17 18 20 23 19 20 21
nan nan nan nan nan nan nan nan nan 18 15 30 33 34 20 13 15 18 17 19 21 21 23 26 24 17 12 16 nan nan nan nan nan nan nan nan 5 3 2 4 6 5 10 12 16 19 16 19 25
nan nan nan nan nan nan nan nan nan 19 nan 41 nan 40 29 17 8 22 21 22 24 25 25 24 17 9 10 17 nan nan nan nan nan nan nan nan nan 5 4 3 2 1 5 8 13 17 18 22 26
nan nan nan nan nan nan nan nan nan 19 nan 31 38 34 40 32 14 10 19 21 22 22 23 20 14 12 15 17 nan nan nan nan nan nan nan nan nan nan 5 10 8 5 4 9 15 18 18 22 nan
nan nan nan nan nan nan nan nan 16 nan 34 39 37 44 55 54 44 15 2 16 20 22 20 14 10 16 23 20 nan nan nan nan nan nan nan nan nan nan nan nan nan nan nan 12 17 nan nan nan nan
Wind_Direction
109 93 99 119 nan nan nan nan nan nan 24 26 317 312 337 346 345 346 332 335 327 325 327 322 320 308 307 293 286 282 286 288 287 290 292 292 299 301 295 289 271 265 260 252 247 250 242 248 253
130 186 141 nan nan nan nan nan nan 316 328 345 312 290 316 344 321 320 320 339 327 318 316 313 311 313 305 293 289 291 291 291 292 291 291 287 289 289 291 292 276 268 266 256 251 242 246 250 245
117 175 nan nan nan nan nan nan nan nan nan nan 24 4 17 14 328 343 316 327 316 330 320 321 320 320 315 310 308 302 294 291 290 288 286 287 282 280 281 281 279 269 262 257 255 241 236 244 246
154 nan nan nan nan nan nan nan nan nan nan nan nan nan 8 27 359 348 340 341 323 329 324 318 315 318 316 316 315 309 298 289 287 289 281 274 274 272 276 274 274 270 262 252 251 252 237 233 241
165 nan nan nan nan nan 9 342 nan 35 nan 7 nan 9 0 353 329 337 338 345 333 330 320 310 317 314 311 312 316 314 307 298 292 287 285 275 266 261 258 260 261 262 260 252 248 243 247 232 240
130 nan nan nan nan nan nan nan 8 27 22 nan nan 6 3 357 332 343 346 346 344 332 319 321 314 302 305 315 321 322 327 325 304 298 295 282 273 256 253 249 236 246 244 252 252 251 254 229 236
231 nan 69 nan nan nan nan nan 27 6 13 nan nan 1 347 7 331 344 345 335 330 321 317 312 306 304 309 314 316 318 322 324 318 307 308 305 292 262 252 249 250 236 237 236 248 247 250 234 218
nan nan 120 111 99 nan 347 0 14 9 3 348 353 0 1 360 332 341 333 327 319 314 323 305 292 282 280 283 298 300 303 312 321 324 330 310 296 272 265 244 241 261 246 238 230 252 235 239 226
nan nan nan 85 56 19 346 355 18 356 334 13 358 343 335 322 324 326 321 323 318 317 317 310 280 274 269 263 276 285 302 307 317 329 333 310 241 218 230 248 234 240 256 248 232 237 230 230 219
nan nan nan 67 76 nan 345 4 nan nan 335 5 347 321 314 315 321 340 333 331 341 354 354 338 305 288 282 271 266 271 275 268 278 282 291 263 246 220 224 235 231 231 239 241 237 227 240 239 221
nan nan nan nan nan nan 8 nan nan nan 353 5 350 332 322 311 326 336 343 347 350 354 354 351 336 304 276 268 266 262 259 266 271 283 272 252 276 223 233 259 255 240 227 217 230 230 225 238 231
nan nan nan nan nan nan 337 nan nan nan 354 357 348 323 312 319 330 335 350 348 360 1 4 358 336 308 288 272 276 278 278 270 271 278 272 265 258 251 257 283 293 232 218 222 217 229 232 236 251
nan nan nan nan nan nan nan nan 328 347 336 329 328 319 311 319 327 335 343 342 358 7 14 9 350 331 313 310 290 280 274 277 268 266 272 264 252 243 247 264 286 249 212 225 224 235 238 244 242
nan nan nan nan nan nan nan 297 331 302 321 320 310 265 245 241 324 332 345 335 349 5 19 10 4 356 342 331 308 300 284 284 274 267 271 276 257 255 257 262 262 247 224 230 233 237 233 235 239
nan nan nan nan nan nan nan nan nan 322 315 305 314 295 223 192 147 351 358 351 334 343 3 5 1 360 347 356 350 332 314 293 283 278 275 278 268 250 255 252 254 247 235 236 236 232 230 239 235
nan nan nan nan nan nan nan nan 311 299 307 311 321 307 313 202 161 78 346 345 323 333 349 3 357 351 352 356 357 348 331 297 284 278 274 273 267 259 252 250 244 245 240 243 252 237 226 227 235
nan nan nan nan nan nan nan nan 300 292 302 329 325 320 nan nan 137 137 348 336 342 342 357 359 350 355 353 342 340 345 345 335 314 290 282 282 274 262 255 245 243 250 245 246 251 234 218 225 229
nan nan nan nan nan nan nan nan nan 312 312 336 324 328 nan 355 357 225 175 308 349 349 353 351 349 342 336 333 317 315 315 318 309 293 285 277 275 268 254 242 238 240 243 240 242 242 220 232 224
nan nan nan nan nan nan nan nan nan 318 324 327 336 341 337 348 325 297 227 176 157 39 10 350 334 336 326 327 317 318 320 319 313 306 286 266 267 270 261 243 238 236 240 244 249 243 242 226 225
nan nan nan nan nan nan nan nan nan 294 321 328 329 336 nan nan 342 307 nan nan 38 47 12 1 337 340 342 330 323 328 322 324 318 310 309 284 251 257 259 248 240 240 235 239 246 249 243 230 227
nan nan nan nan nan nan nan nan nan nan 304 327 340 336 nan 354 326 321 346 nan 356 26 19 356 355 346 345 342 324 322 326 319 305 305 300 270 275 269 264 253 237 236 239 238 241 246 247 240 228
nan nan nan nan nan nan nan nan nan nan 295 314 nan nan 4 3 336 329 351 27 nan 11 18 353 351 340 339 334 327 335 339 326 331 nan nan nan nan 277 268 255 230 234 238 241 236 241 248 247 228
nan nan nan nan nan nan nan nan nan nan nan nan nan nan 354 1 355 343 4 28 23 355 342 349 350 341 334 330 333 344 345 nan nan nan 353 355 329 nan nan 247 233 232 235 236 237 239 245 235 231
nan nan nan nan nan nan nan nan nan 334 nan nan 306 nan 330 356 356 6 14 21 23 13 342 338 342 337 332 335 nan nan nan nan nan nan nan 353 1 348 nan 237 224 228 235 237 237 233 242 240 233
nan nan nan nan nan nan nan nan nan nan nan nan 309 302 326 339 344 6 8 17 11 340 341 341 335 334 336 345 nan nan nan nan nan nan 334 nan 13 358 276 260 252 244 248 247 242 230 232 243 246
nan nan nan nan nan nan nan nan nan nan nan 312 nan 284 314 332 346 354 355 345 341 335 343 340 332 335 352 347 342 nan nan nan nan nan 5 17 nan 333 272 251 256 257 250 246 231 221 228 235 248
nan nan nan nan nan nan nan nan nan 249 290 278 265 278 298 322 334 337 333 323 342 350 344 337 340 354 9 1 nan nan nan nan nan nan nan nan 355 5 281 263 267 268 251 238 221 215 233 246 251
nan nan nan nan nan nan nan nan nan 288 nan 303 nan 202 233 182 170 319 327 335 334 350 354 345 352 22 22 355 nan nan nan nan nan nan nan nan nan 329 305 301 291 241 243 237 231 226 228 245 248
nan nan nan nan nan nan nan nan nan 326 nan 303 313 324 321 326 305 163 315 326 330 339 351 342 2 9 356 354 nan nan nan nan nan nan nan nan nan nan 255 300 244 246 241 237 234 226 236 250 nan
nan nan nan nan nan nan nan nan 268 nan 307 307 318 322 327 330 296 225 101 330 331 337 344 330 314 331 341 339 nan nan nan nan nan nan nan nan nan nan nan nan nan nan nan 230 236 nan nan nan nan